Cloud_Cover
100 100 100 100 100 100 100 100 100 100 92 100 100 100 100 16 70 6 5 5 5 5 5 5 5 4 5 0 0 0 0 0 0 0 0 0 0 0 0 0 0 0 0 0
96 100 100 100 100 100 100 100 100 100 100 100 100 100 100 92 57 5 5 4 4 5 5 5 5 5 5 4 0 0 0 0 0 5 5 5 3 2 0 0 0 0 0 0
100 100 100 100 100 100 100 100 100 100 100 100 100 100 100 100 100 99 29 4 2 1 5 2 5 5 5 4 0 0 0 5 5 5 5 5 5 2 1 0 0 0 0 0
100 100 100 100 100 100 100 100 100 100 100 100 100 100 100 100 100 89 35 5 5 5 5 5 5 5 7 5 5 0 0 5 5 5 5 5 1 1 0 0 0 0 0 4
100 100 100 100 100 100 100 100 100 100 100 100 100 100 100 100 86 43 5 5 5 5 5 5 5 5 5 5 5 5 5 5 5 5 4 5 5 0 0 0 0 0 5 5
100 100 100 100 100 100 100 100 100 100 100 85 100 76 100 100 100 100 4 5 5 9 5 5 5 5 5 5 5 5 5 4 5 26 9 1 0 0 0 1 5 5 5 5
100 100 100 100 100 100 100 100 100 100 85 93 100 100 100 100 100 100 11 5 4 4 5 5 5 5 6 5 5 1 5 5 10 5 0 0 0 0 0 5 5 5 5 5
99 100 100 100 100 100 100 100 100 100 100 100 100 75 100 100 100 100 99 85 24 5 1 2 5 5 5 5 5 5 18 16 5 0 0 0 0 0 0 5 5 5 5 5
100 100 100 100 100 100 100 100 100 93 97 100 81 98 100 100 100 100 99 7 6 5 5 5 5 5 5 5 5 25 51 5 4 0 0 0 0 1 5 5 5 5 5 51
100 100 100 100 100 100 100 100 100 100 100 90 92 100 100 100 100 97 37 53 12 42 9 5 0 4 5 5 5 5 5 5 5 0 0 0 1 5 5 5 5 5 76 100
100 100 100 100 100 100 100 100 100 97 10 30 36 85 100 100 100 100 52 39 48 90 5 0 0 5 5 5 5 5 5 5 2 0 0 3 5 5 5 5 5 34 100 100
100 99 100 100 100 100 100 100 100 100 53 76 100 100 100 100 100 100 34 18 100 83 4 5 5 5 5 5 5 5 5 2 0 0 5 5 5 5 5 5 5 97 100 100
100 98 100 100 100 99 100 100 100 100 100 32 92 92 85 100 100 100 100 38 100 57 5 5 5 5 5 5 5 5 2 0 5 5 5 5 5 5 5 5 66 37 65 98
100 100 94 100 100 100 94 100 100 100 100 100 65 50 100 99 100 100 100 100 99 96 98 9 19 5 2 0 5 5 5 5 5 5 5 7 5 7 7 8 97 20 9 95
100 100 100 100 100 99 100 100 100 32 50 37 100 100 100 100 100 100 100 100 95 96 91 11 14 5 5 5 10 5 5 5 15 6 12 5 8 15 46 7 98 93 47 96
100 100 100 100 100 100 100 100 79 19 44 89 100 100 100 100 100 100 100 100 100 100 89 86 17 5 9 66 39 19 12 26 44 68 36 54 71 61 5 5 9 100 98 51
99 100 100 100 100 100 100 89 99 100 100 98 47 100 100 86 66 100 97 67 94 100 5 17 5 6 56 100 63 77 58 40 29 72 25 68 95 24 5 5 5 26 42 9
100 100 100 100 100 89 97 100 31 91 100 90 92 100 100 98 66 62 24 11 32 94 24 55 5 5 49 60 32 27 51 59 62 84 65 73 94 5 5 5 5 23 7 5
100 100 100 100 100 100 100 100 100 100 100 100 63 100 100 100 99 10 72 79 99 6 20 68 83 100 100 100 78 43 76 75 79 48 30 68 63 5 5 5 19 50 62 5
100 100 100 100 100 100 100 100 100 100 100 100 98 100 100 100 100 100 100 100 100 98 100 84 100 100 100 100 68 18 71 62 37 5 5 10 7 5 5 44 51 55 48 5
100 100 100 100 100 100 100 100 100 100 100 100 100 100 100 100 100 100 100 100 100 100 100 100 100 100 100 88 32 88 81 46 5 5 11 51 5 5 5 39 59 5 5 5
89 100 100 100 100 100 100 100 100 100 100 100 100 100 100 100 100 100 100 100 100 100 100 100 100 100 100 88 62 91 91 37 16 51 64 6 5 26 19 5 5 5 5 5
100 100 29 100 92 100 100 100 100 100 100 100 100 89 100 100 100 100 100 100 100 100 100 100 100 100 100 48 9 35 100 69 55 84 100 82 5 96 30 10 5 5 5 48
100 100 100 31 100 100 86 100 100 100 100 100 100 97 100 100 100 100 100 100 100 100 100 100 100 100 73 33 24 89 100 100 35 90 98 100 36 100 100 100 11 10 53 68
100 100 100 90 100 100 100 100 100 100 100 100 100 96 100 100 100 100 100 100 100 100 100 100 100 100 44 100 100 97 100 100 88 100 100 100 100 100 100 100 100 85 5 5
100 100 100 100 100 98 100 99 100 100 100 100 100 97 100 100 100 100 100 100 100 100 100 100 100 100 100 100 100 87 100 100 99 55 100 100 100 100 100 100 100 99 100 80